Regional Weather Roundup
Issued by NWS Kansas City/Pleasant Hill, MO

Home | Current Version | Previous Version | Graphics & Text | Print | Product List | Glossary Off
Versions: 1 2 3 4 5 6 7 8 9 10 11 12 13 14 15 16 17 18 19 20 21 22 23 24 25 26 27 28

000
ASUS43 KEAX 230310
RWREAX

WEATHER ROUNDUP FOR EASTERN KANSAS AND NORTHWEST MISSOURI
NATIONAL WEATHER SERVICE KANSAS CITY/PLEASANT HILL MO
1000 PM CDT TUE AUG 22 2017

KSZ040-057-103>105-MOZ028-029-037-043-230400-
...KANSAS CITY METROPOLITAN AREA...

CITY           SKY/WX    TMP DP  RH WIND       PRES   REMARKS
K.C. INTL      CLEAR     62  54  74 N8        30.14R
K.C. DOWNTOWN  CLEAR     67  58  72 N6        30.12R
LEES SUMMIT    CLEAR     68  57  68 MISG      30.13R
OLATHE - IXD   CLEAR     61  57  87 N7        30.14R
OLATHE - OJC   CLEAR     67  55  65 N7        30.13R
LAWRENCE       CLEAR     61  58  90 NW7       30.14R

$$

MOZ001>008-011>017-020>025-030>033-038>040-044>046-053-054-230400-
...NORTHERN AND CENTRAL MISSOURI...

CITY           SKY/WX    TMP DP  RH WIND       PRES   REMARKS
ST. JOSEPH     CLEAR     59  57  93 N3        30.14R
MOSBY          CLEAR     63  55  77 N3        30.12S
WARRENSBURG    CLEAR     64  57  77 NW3       30.11R
WHITEMAN AFB   CLEAR     65  63  94 N6        30.10R
CLINTON        CLEAR     66  64  94 N6        30.11R
SEDALIA        CLEAR     66  63  90 N5        30.11R
WARSAW         NOT AVBL
CHILLICOTHE      N/A     60  58  92 CALM      30.13R
KIRKSVILLE     CLEAR     60  32  34 N5        30.12R

$$

MOZ041-047>049-056>058-063>065-088>090-097-230400-
...EASTERN AND SOUTHERN MISSOURI...

CITY           SKY/WX    TMP DP  RH WIND       PRES   REMARKS
ST. LOUIS INTL CLEAR     72  61  68 N6        30.06R
SPIRIT OF STL  CLEAR     67  64  90 CALM      30.05R
COLUMBIA       CLEAR     67  56  67 N9        30.10R
JEFFERSON CITY CLEAR     69  64  84 NW3       30.08R
ROLLA          PTCLDY    68  64  87 CALM      30.09R
OSAGE BEACH    CLEAR     69  62  78 N5        30.09R
SPRINGFIELD    CLOUDY    74  68  81 N10       30.08R
BRANSON        CLOUDY    75  70  83 CALM      30.08R
JOPLIN         PTCLDY    75  72  90 N7        30.08R
WEST PLAINS    CLEAR     71  67  87 N5        30.08R

$$

IAZ060-094-KSZ022-034>040-054-083-096-NEZ052-066-093-230400-
...KANSAS...SOUTHEAST NEBRASKA AND IOWA...

CITY           SKY/WX    TMP DP  RH WIND       PRES   REMARKS
TOPEKA         CLEAR     64  58  80 N7        30.14R
MANHATTAN      CLEAR     65  54  67 N3        30.15R
EMPORIA        CLEAR     65  58  78 NE8       30.14R
CHANUTE        CLEAR     71  64  78 NE7       30.11R
WICHITA        CLEAR     75  52  44 NE13      30.11R
OMAHA          PTCLDY    64  56  75 CALM      30.15R
LINCOLN        CLEAR     63  55  75 CALM      30.17R
FALLS CITY     CLEAR     63  54  72 NW3       30.14R
LAMONI         CLEAR     61  51  70 NW6       30.13R
DES MOINES     CLEAR     67  51  56 CALM      30.10R

$$





USA.gov is the U.S. government's official web portal to all federal, state and local government web resources and services.